Weather History for PMDY - March, 2014

Change the Weather History Date:

Wednesday, March 12, 2014

  Actual Average Record
Temperature  
Mean Temperature 68 °F -  
Max Temperature 73 °F - - ()
Min Temperature 62 °F - - ()
Cooling Degree Days 2    
Growing Degree Days 18 (Base 50)    
Moisture  
Dew Point 65 °F    
Average Humidity 93    
Maximum Humidity 100    
Minimum Humidity 73    
Precipitation  
Precipitation 0.00 in - - ()
Sea Level Pressure  
Sea Level Pressure 30.43 in    
Wind  
Wind Speed 10 mph (NW)    
Max Wind Speed 17 mph    
Max Gust Speed 29 mph    
Visibility 6 miles    
Events Rain    
T = Trace of Precipitation, MM = Missing Value Source: NWS Daily Summary

Daily Weather History Graph

Daily Weather History Graph

Search for Another Location

Airport or City:

Trip Planner

Search our weather history database for the weather conditions in past years. The results will help you decide how hot, cold, wet, or windy it might be!

Date:

Astronomy

Mar. 12, 2014 Rise Set
Actual Time 6:02 PM GMT 5:56 AM GMT
Civil Twilight 5:38 PM GMT 6:19 AM GMT
Nautical Twilight 5:11 PM GMT 6:47 AM GMT
Astronomical Twilight 4:44 PM GMT 7:14 AM GMT
Moon 2:01 AM GMT 3:28 PM GMT
Length of Visible Light 12h 41m
Length of Day
11h 54m
Waxing Gibbous, 84% of the Moon is Illuminated
Mar 12
Waxing Gibbous
Mar 16
Full
Mar 24
Last Quarter
Mar 30
New
Apr 7
First Quarter

Hourly Weather History & Observations

Time (GMT) Temp. Dew Point Humidity Pressure Visibility Wind Dir Wind Speed Gust Speed Precip Events Conditions
12:56 AM 72.9 °F 65.8 °F 79% 30.90 in 10.0 mi West 13.8 mph - N/A   Overcast
1:05 AM 73.4 °F 64.4 °F 73% 29.99 in 10.0 mi West 12.7 mph - N/A   Overcast
1:18 AM 71.6 °F 66.2 °F 83% 29.99 in 10.0 mi West 17.3 mph 28.8 mph N/A   Mostly Cloudy
1:39 AM 71.6 °F 68.0 °F 88% 29.98 in 10.0 mi SW 10.4 mph - N/A   Overcast
1:56 AM 72.9 °F 65.8 °F 79% 30.89 in 10.0 mi SW 12.7 mph - N/A   Mostly Cloudy
2:56 AM 72.9 °F 65.8 °F 79% 30.89 in 10.0 mi SW 13.8 mph - N/A   Overcast
3:56 AM 72.9 °F 66.9 °F 82% 30.89 in 10.0 mi WSW 15.0 mph - N/A   Overcast
4:56 AM 72.0 °F 66.9 °F 84% 30.90 in 10.0 mi WSW 11.5 mph - N/A   Overcast
5:56 AM 70.9 °F 68.0 °F 91% 30.92 in 10.0 mi WSW 11.5 mph - N/A   Partly Cloudy
6:56 AM 70.0 °F 70.0 °F 100% 30.94 in 10.0 mi WSW 4.6 mph - N/A   Mostly Cloudy
7:56 AM 70.0 °F 68.9 °F 96% 30.96 in 10.0 mi West 8.1 mph - N/A   Overcast
8:56 AM 70.0 °F 68.9 °F 96% 30.97 in 10.0 mi West 9.2 mph - N/A   Mostly Cloudy
9:56 AM 70.0 °F 68.0 °F 93% 30.97 in 10.0 mi West 6.9 mph - N/A   Overcast
10:56 AM 68.9 °F 68.9 °F 100% 30.97 in 10.0 mi West 8.1 mph - N/A   Clear
11:22 AM 69.8 °F 69.8 °F 100% 30.05 in 10.0 mi West 9.2 mph - N/A   Mostly Cloudy
11:47 AM 66.2 °F 66.2 °F 100% 30.06 in 10.0 mi NNW 10.4 mph - N/A   Mostly Cloudy
11:56 AM 66.2 °F 66.2 °F 100% 30.06 in 10.0 mi NNW 9.2 mph - N/A   Scattered Clouds
12:12 PM 64.4 °F 64.4 °F 100% 30.06 in 10.0 mi NNW 10.4 mph - N/A   Mostly Cloudy
12:56 PM 64.9 °F 64.9 °F 100% 30.97 in 10.0 mi North 9.2 mph - N/A   Overcast
1:21 PM 64.4 °F 64.4 °F 100% 30.05 in 10.0 mi North 10.4 mph - N/A   Overcast
1:56 PM 64.9 °F 64.9 °F 100% 30.97 in 8.0 mi North 8.1 mph - N/A   Overcast
2:33 PM 64.4 °F - N/A% 30.06 in 10.0 mi North 5.8 mph - N/A   Overcast
2:42 PM 64.4 °F 64.4 °F 100% 30.06 in 10.0 mi North 6.9 mph - N/A   Overcast
2:56 PM 64.4 °F 64.4 °F 100% 30.06 in 10.0 mi North 6.9 mph - N/A   Overcast
3:04 PM 64.4 °F 64.4 °F 100% 30.06 in 10.0 mi North 6.9 mph - N/A   Overcast
3:29 PM 64.4 °F 64.4 °F 100% 30.07 in 1.8 mi NNW 8.1 mph - N/A   Overcast
3:39 PM 64.4 °F 64.4 °F 100% 30.07 in 3.0 mi NNW 4.6 mph - N/A   Overcast
3:56 PM 63.9 °F 63.9 °F 100% 30.99 in 7.0 mi NNW 6.9 mph - N/A   Overcast
4:46 PM 64.4 °F 64.4 °F 100% 30.09 in 1.8 mi NNW 6.9 mph - N/A   Overcast
4:56 PM 63.9 °F 63.9 °F 100% 31.01 in 1.5 mi North 11.5 mph - N/A   Overcast
5:01 PM 62.6 °F 62.6 °F 100% 30.09 in 1.2 mi North 10.4 mph - N/A   Overcast
5:09 PM 62.6 °F 62.6 °F 100% 30.10 in 1.5 mi North 10.4 mph - N/A   Overcast
5:21 PM 62.6 °F - N/A% 30.11 in 1.0 mi North 12.7 mph - 0.00 in Rain Light Rain
5:42 PM 62.6 °F - N/A% 30.11 in 0.8 mi North 11.5 mph - 0.00 in Rain Light Rain
5:56 PM 62.6 °F - N/A% 30.12 in 1.0 mi North 9.2 mph - N/A Rain Light Rain
6:06 PM 62.6 °F - N/A% 30.13 in 1.5 mi North 10.4 mph - 0.00 in Rain Light Rain
6:15 PM 62.6 °F - N/A% 30.13 in 2.0 mi North 11.5 mph - 0.00 in Rain Light Rain
6:23 PM 62.6 °F - N/A% 30.13 in 3.0 mi North 6.9 mph - 0.00 in   Overcast
6:32 PM 62.6 °F 62.6 °F 100% 30.13 in 2.0 mi North 6.9 mph - 0.00 in   Overcast
6:45 PM 62.6 °F 62.6 °F 100% 30.14 in 4.0 mi North 6.9 mph - 0.00 in Rain Light Rain
6:56 PM 63.9 °F 63.9 °F 100% 31.06 in 3.0 mi North 5.8 mph - 0.00 in   Overcast
7:56 PM 64.9 °F 63.0 °F 93% 31.08 in 9.0 mi NNW 8.1 mph - N/A   Overcast
8:56 PM 64.4 °F 62.6 °F 94% 30.18 in 4.0 mi North 5.8 mph - N/A   Overcast
9:56 PM 66.9 °F 61.9 °F 84% 31.11 in 4.0 mi Calm Calm - N/A   Haze
10:19 PM 66.2 °F 62.6 °F 88% 30.19 in 2.0 mi North 5.8 mph - N/A   Mostly Cloudy
10:26 PM 68.0 °F 62.6 °F 83% 30.19 in 1.2 mi Calm Calm - N/A   Haze
10:36 PM 66.2 °F 64.4 °F 94% 30.19 in 2.5 mi North 6.9 mph - N/A   Mostly Cloudy
10:43 PM 66.2 °F 62.6 °F 88% 30.19 in 4.0 mi North 3.5 mph - N/A   Overcast
10:56 PM 66.9 °F 63.0 °F 87% 31.11 in 3.0 mi North 5.8 mph - N/A   Overcast
11:56 PM 69.8 °F 60.8 °F 73% 30.18 in 9.0 mi NNW 9.2 mph - N/A   Overcast